Home   Weather   Pictou   Past weeks

Flag for Canada Past Weather in Pictou, Nova Scotia, Canada — Yesterday and Last 2 Weeks

Now
65 °F

Mild.


Feels Like: 65 °F
Forecast: 65 / 76 °F
Wind: 1 mph from West

Location: Caribou Point

Current Time: Jul 21, 2017 at 3:55:47 am

Latest Report: Jul 21, 2017 at 3:00 am


Visibility: N/A

Pressure: 29.77 "Hg

Humidity: 94%

Dew Point: 63 °F

Location of PictouLocation

Past Weather in Pictou — Graph

°F

Pictou Temperature Yesterday

Maximum temperature yesterday: 76 °F (at 6:00 pm)
Minimum temperature yesterday: 65 °F (at 5:00 am)
Average temperature yesterday: 70 °F

High & Low Weather Summary for the Past Weeks

 TemperatureHumidityPressure
High82 °F (Jul 10, 4:00 pm)96% (Jul 18, 10:00 pm)30.18 "Hg (Jul 18, 10:00 pm)
Low53 °F (Jul 14, 2:00 am)39% (Jul 6, 3:00 pm)29.65 "Hg (Jul 8, 11:00 am)
Average68 °F76%29.95 "Hg
* Reported Jul 6 2:00 am — Jul 21 2:00 am, Pictou. Weather by CustomWeather, © 2017

Note: Actual official high and low records may vary slightly from our data, if they occured in-between our weather recording intervals... More about our weather records

Advertising

Pictou Weather History for the Previous 24 Hours

Scroll right to see more
 ConditionsComfort  
Time TempWeatherWind HumidityBarometerVisibility
2:00 am
Fri, Jul 21
66 °FMild.5 mph95%29.77 "HgN/A
1:00 am67 °FMild.5 mph95%29.79 "HgN/A
12:00 am67 °FMild.3 mph94%29.80 "HgN/A
11:00 pm
Thu, Jul 20
68 °FMild.6 mph93%29.81 "HgN/A
10:00 pm68 °FMild.6 mph93%29.82 "HgN/A
9:00 pm68 °FMild.6 mph86%29.81 "HgN/A
8:00 pm69 °FMild.7 mph82%29.80 "HgN/A
7:00 pm74 °FMild.2 mph73%29.81 "HgN/A
6:00 pm76 °FMild.8 mph69%29.80 "HgN/A
5:00 pm75 °FMild.9 mph72%29.81 "HgN/A
4:00 pm75 °FMild.6 mph73%29.82 "HgN/A
3:00 pm74 °FMild.9 mph74%29.82 "HgN/A
2:00 pm74 °FMild.12 mph75%29.82 "HgN/A
1:00 pm72 °FMild.10 mph80%29.85 "HgN/A
12:00 pm73 °FMild.13 mph79%29.85 "HgN/A
11:00 am73 °FMild.7 mph78%29.85 "HgN/A
10:00 am72 °FMild.12 mph76%29.84 "HgN/A
9:00 am72 °FMild.5 mph82%29.85 "HgN/A
8:00 am69 °FMild.5 mph88%29.83 "HgN/A
7:00 am67 °FMild.3 mph92%29.83 "HgN/A
6:00 am65 °FMild.5 mph94%29.83 "HgN/A
5:00 am65 °FMild.5 mph93%29.83 "HgN/A
4:00 am65 °FMild.8 mph93%29.83 "HgN/A
3:00 am66 °FMild.8 mph92%29.84 "HgN/A
Weather by CustomWeather, © 2017

See weather overviewHow to use our weather pages